Alpena, MI

2:42 PM EST on February 26, 2017 (GMT -0500)
Alpena County Regional

Weather History for KAPN - March, 2012

Change the Weather History Date:

Saturday, March 10, 2012

  Actual Average Record
Temperature  
Mean Temperature 28 °F 26 °F  
Max Temperature 46 °F 36 °F 61 °F (1977)
Min Temperature 10 °F 17 °F -9 °F (1960)
Degree Days  
Heating Degree Days 37 39  
Month to date heating degree days 372 402  
Since 1 July heating degree days 5337 6134  
Cooling Degree Days 0 0  
Month to date cooling degree days 0 0  
Year to date cooling degree days 0 0  
Moisture  
Dew Point 15 °F    
Average Humidity 62    
Maximum Humidity 88    
Minimum Humidity 36    
Precipitation  
Precipitation 0.00 in 0.06 in 0.91 in (1918)
Month to date precipitation 1.25 0.58  
Year to date precipitation 4.73 3.56  
Snow  
Snow 0.00 in 0.40 in 7.00 in (1943)
Month to date snowfall 7.1 4.9  
Since 1 July snowfall 53.2 71.0  
Snow Depth 8.00 in    
Sea Level Pressure  
Sea Level Pressure 30.31 in    
Wind  
Wind Speed 9 mph (South)    
Max Wind Speed 24 mph    
Max Gust Speed 31 mph    
Visibility 10 miles    
Events      
T = Trace of Precipitation, MM = Missing Value Source: NWS Daily Summary

Daily Weather History Graph

Daily Weather History Graph

Search for Another Location

Airport or City:

Trip Planner

Search our weather history database for the weather conditions in past years. The results will help you decide how hot, cold, wet, or windy it might be!

Date:

Astronomy

Mar. 10, 2012 Rise Set
Actual Time 6:55 AM EST 6:34 PM EST
Civil Twilight 6:25 AM EST 7:03 PM EST
Nautical Twilight 5:51 AM EST 7:37 PM EST
Astronomical Twilight 5:17 AM EST 8:12 PM EST
Moon 9:57 PM EST (3/10) 7:39 AM EST (3/10)
Length of Visible Light 12h 37m
Length of Day
11h 39m
Waning Gibbous, 93% of the Moon is Illuminated
Mar 10
Waning Gibbous
Mar 14
Last Quarter
Mar 22
New
Mar 30
First Quarter
Apr 6
Full

Hourly Weather History & Observations

Time (EST) Temp. Windchill Dew Point Humidity Pressure Visibility Wind Dir Wind Speed Gust Speed Precip Events Conditions
12:04 AM 17.6 °F 10.7 °F 10.4 °F 73% 30.51 in 10.0 mi West 4.6 mph - N/A   Mostly Cloudy
12:54 AM 16.0 °F - 9.0 °F 74% 30.56 in 10.0 mi Calm Calm - N/A   Scattered Clouds
1:54 AM 15.1 °F - 9.0 °F 77% 30.55 in 10.0 mi Calm Calm - N/A   Clear
2:54 AM 12.9 °F - 9.0 °F 84% 30.54 in 10.0 mi Calm Calm - N/A   Clear
3:54 AM 10.0 °F - 7.0 °F 87% 30.53 in 10.0 mi Calm Calm - N/A   Clear
4:54 AM 14.0 °F - 10.0 °F 84% 30.53 in 10.0 mi Calm Calm - N/A   Overcast
5:54 AM 16.0 °F 10.4 °F 10.9 °F 81% 30.52 in 10.0 mi South 3.5 mph - N/A   Overcast
6:54 AM 18.0 °F 9.8 °F 10.9 °F 74% 30.51 in 10.0 mi South 5.8 mph - N/A   Overcast
7:31 AM 17.6 °F 8.2 °F 12.2 °F 79% 30.46 in 10.0 mi SSE 6.9 mph - N/A   Overcast
7:54 AM 19.0 °F 9.0 °F 12.0 °F 74% 30.50 in 10.0 mi SSE 8.1 mph - N/A   Overcast
8:54 AM 21.0 °F 8.6 °F 10.9 °F 65% 30.47 in 10.0 mi SSE 12.7 mph - N/A   Overcast
9:54 AM 23.0 °F 8.7 °F 14.0 °F 68% 30.42 in 10.0 mi South 18.4 mph 26.5 mph N/A   Mostly Cloudy
10:54 AM 25.0 °F 10.9 °F 12.9 °F 60% 30.36 in 10.0 mi South 19.6 mph 27.6 mph N/A   Partly Cloudy
11:54 AM 27.0 °F 12.8 °F 12.0 °F 53% 30.32 in 10.0 mi South 21.9 mph 26.5 mph N/A   Scattered Clouds
12:54 PM 30.9 °F 18.7 °F 14.0 °F 50% 30.25 in 10.0 mi South 19.6 mph 25.3 mph N/A   Scattered Clouds
1:54 PM 33.1 °F 22.2 °F 16.0 °F 50% 30.19 in 10.0 mi South 17.3 mph 25.3 mph N/A   Clear
2:54 PM 37.9 °F 29.6 °F 16.0 °F 41% 30.15 in 10.0 mi SSW 13.8 mph 24.2 mph N/A   Clear
3:54 PM 42.1 °F 34.5 °F 18.0 °F 38% 30.10 in 10.0 mi SSW 15.0 mph 25.3 mph N/A   Clear
4:54 PM 45.0 °F 39.3 °F 19.0 °F 36% 30.07 in 10.0 mi SSW 11.5 mph 18.4 mph N/A   Clear
5:54 PM 43.0 °F 38.8 °F 21.9 °F 43% 30.07 in 10.0 mi South 6.9 mph - N/A   Clear
6:54 PM 37.9 °F 32.7 °F 21.9 °F 53% 30.08 in 10.0 mi South 6.9 mph - N/A   Clear
7:54 PM 37.0 °F 32.4 °F 21.0 °F 52% 30.08 in 10.0 mi South 5.8 mph - N/A   Clear
8:54 PM 43.0 °F 38.2 °F 24.1 °F 47% 30.07 in 10.0 mi SSW 8.1 mph - N/A   Clear
9:54 PM 43.0 °F 37.7 °F 24.1 °F 47% 30.07 in 10.0 mi SSW 9.2 mph - N/A   Clear
10:54 PM 44.1 °F 39.0 °F 26.1 °F 49% 30.07 in 10.0 mi SW 9.2 mph - N/A   Clear
11:54 PM 45.0 °F 40.6 °F 27.0 °F 49% 30.07 in 10.0 mi SW 8.1 mph - N/A   Clear